Regional Weather Roundup
Issued by NWS

Home | Current Version | Previous Version | Text Only | Print | Product List | Glossary On
Versions: 1 2 3 4 5 6 7 8 9 10 11 12 13 14 15 16 17 18 19 20 21 22 23 24 25 26 27 28 29 30 31 32 33 34 35 36 37 38 39 40 41 42 43 44 45 46 47 48 49 50
000
ASUS43 KMKX 041310
RWRWI

WISCONSIN REGIONAL WEATHER ROUNDUP
NATIONAL WEATHER SERVICE MILWAUKEE/SULLIVAN WI
700 AM CST WED MAR 04 2015

NOTE: "FAIR" INDICATES FEW OR NO CLOUDS BELOW 12,000 FEET WITH NO
SIGNIFICANT WEATHER AND/OR OBSTRUCTIONS TO VISIBILITY.

WIZ001-002-006>008-014>016-023>028-041400-
NORTHWEST WISCONSIN

CITY           SKY/WX    TMP DP  RH WIND       PRES   REMARKS
SUPERIOR ARPT  CLEAR    -10 -15  80 S6        30.09R WCI -24
ASHLAND        CLOUDY    -5 -12  72 SW8       30.04R WCI -20
HAYWARD        CLEAR     -5 -13  68 VRB3      30.03R
SIREN          CLEAR     -5 -12  75 W7        30.10R WCI -20
CUMBERLAND     CLEAR     -9 -15  77 W7        30.06R WCI -24
RICE LAKE      CLEAR     -5 -11  77 W3        30.09R
CHETEK         CLEAR     -3  -9  76 W7        30.08R WCI -17
LADYSMITH      CLEAR     -5 -11  75 W8        30.04R WCI -21
EAU CLAIRE     CLEAR     -2 -10  69 W7        30.10R WCI -15
MENOMONIE      CLEAR      0  -8  69 W7        30.12R WCI -13
NEW RICHMOND   CLEAR     -5 -11  74 W8        30.12R WCI -20
OSCEOLA        CLEAR     -4 -10  74 W7        30.16R WCI -18
$$

WIZ003>005-009-010-017-018-041400-
NORTH CENTRAL WISCONSIN

CITY           SKY/WX    TMP DP  RH WIND       PRES   REMARKS
MANITOWISH WTR CLEAR     -7 -12  76 W9        29.91R WCI -24
ARBOR VITAE    CLEAR     -3 -10  72 W6        29.91S WCI -15
WOODRUFF       CLEAR     -3 -10  72 W6        29.91S WCI -15
RHINELANDER    CLEAR     -4 -12  68 W9        29.91R WCI -20
EAGLE RIVER    CLEAR     -4 -12  68 W10G16    29.89R WCI -21
LAND O LAKES   CLEAR     -3  -9  77 W5        29.88S WCI -14
PHILLIPS       CLEAR     -6 -12  75 W3        29.96R
TOMAHAWK       CLEAR     -4 -12  70 CALM      29.95R
MEDFORD        CLEAR     -3  -8  79 W12       29.97R WCI -21
MERRILL        CLEAR     -2 -11  64 NW7       29.97R WCI -15
$$

WIZ029-030-035-036-043>047-041400-
CENTRAL WISCONSIN

CITY           SKY/WX    TMP DP  RH WIND       PRES   REMARKS
WAUSAU         CLEAR      0  -8  69 NW8       29.98R WCI -14
MOSINEE        CLEAR      0  -6  78 W10       29.99R WCI -17
MARSHFIELD     CLEAR      1  -8  66 W12       30.01R WCI -16
STEVENS POINT  CLEAR      1  -6  73 W10       30.02R WCI -16
WAUPACA        CLEAR      7  -5  56 W12G20    30.03R WCI  -8
WAUTOMA        CLEAR      6  -4  63 NW12G20   30.06R WCI  -9
WISC RAPIDS    CLEAR      3  -7  63 W12       30.06R WCI -13
CAMP DOUGLAS   PTCLDY     3  -4  72 W9        30.09R WCI -11
$$

WIZ011>013-019>022-031-037>040-048>050-041400-
NORTHEAST WISCONSIN

CITY           SKY/WX    TMP DP  RH WIND       PRES   REMARKS
ANTIGO         CLEAR     -2 -10  70 NW13      29.93R WCI -21
SHAWANO        CLEAR      8  -4  57 W8G17     29.99R WCI  -4
OCONTO         CLEAR      8  -4  60 NW7       29.98R WCI  -4
STURGEON BAY   PTCLDY     7  -4  61 W9        29.97R WCI  -7
GREEN BAY      CLEAR      9   0  67 W12       29.99R WCI  -6
MANITOWOC      CLEAR     11   4  73 W13       30.00R WCI  -4
APPLETON       MOCLDY     7  -4  61 W15       30.00R WCI -11
CLINTONVILLE   CLEAR      7  -4  61 W10       30.01R WCI  -8
OSHKOSH        PTCLDY     8  -3  61 W17G24    30.03R WCI -10
$$

WIZ032>034-041-042-053>061-041400-
SOUTHWEST WISCONSIN

CITY           SKY/WX    TMP DP  RH WIND       PRES   REMARKS
LA CROSSE      CLEAR      5  -5  63 W8        30.15R WCI  -8
SPARTA         CLEAR      4  -4  68 W3        30.12R
VIROQUA        CLEAR      4  -3  74 NW12      30.07R WCI -13
BOSCOBEL       FAIR       8  -3  61 NW8       30.14R WCI  -4
PRAIRIE DU CHI PTCLDY     7  -5  57 NW12      30.16R WCI  -8
PLATTEVILLE    MOCLDY     7   1  74 W9        30.10R WCI  -6
$$

WIZ056-057-062-063-064-067-068-041400-
SOUTH CENTRAL WISCONSIN

CITY           SKY/WX    TMP DP  RH WIND       PRES   REMARKS
REEDSBURG      PTCLDY     7  -3  64 NW10      30.07R WCI  -7
BARABOO/DELLS  PTCLDY     7  -3  63 CALM      30.06R
LONE ROCK      PTCLDY     9  -2  61 W13       30.11R WCI  -7
MINERAL POINT  FAIR       9   1  72 W6        30.06R WCI  -1
MADISON        MOCLDY    10   2  69 NW8       30.05R WCI  -2
MIDDLETON      PTCLDY    11   0  59 NW8       30.05S WCI  -1
WATERTOWN      PTCLDY    11   3  70 NW9       30.03S WCI  -1
MONROE         PTCLDY    10   5  79 NW15      30.05R WCI  -6
JANESVILLE     NOT AVBL
$$

WIZ051-052-058>065-066-070>072-041400-
SOUTHEAST WISCONSIN

CITY           SKY/WX    TMP DP  RH WIND       PRES   REMARKS
MILWAUKEE      MOCLDY    16   3  56 NW15      30.03R WCI   1
WAUKESHA       PTCLDY    12   3  67 NW12G23   30.02R WCI  -2
MILWAUKEE/TIMM MOCLDY    12   1  62 NW13G21   30.03R WCI  -3
RACINE         PTCLDY    16   4  59 NW9       30.03R WCI   4
BURLINGTON     PTCLDY    13   6  74 NW14G20   30.02S WCI  -2
KENOSHA        PTCLDY    16   9  74 NW6       30.01S WCI   7
FOND DU LAC    CLEAR     10  -1  61 W12       30.03R WCI  -5
SHEBOYGAN      PTCLDY    11   1  64 W14       30.01R WCI  -5
WEST BEND      MOCLDY    10   1  67 W14       30.01R WCI  -5
JUNEAU         CLEAR      8  -1  65 W6        30.04R WCI  -2
$$

LSZ147-162-041400-
LAKE SUPERIOR

STATION/POSITION TIME  TEMP    WIND        PRES    WAVE
                       AIR SEA DIR/SP/G            HT/PER
                 (UTC) (F)     (DEG/KT/KT) (MB)    (FT/S)
DEVILS ISLAND    1300    2     300/ 24/ 29 1018.4R
PORT WING        1200    2     300/ 15/ 21 1017.3
SAXON HARBOR     1040    1     230/  5/ 10 1015.6
$$

LMZ867-665-643>646-041400-
LAKE MICHIGAN

STATION/POSITION TIME  TEMP    WIND        PRES    WAVE
                       AIR SEA DIR/SP/G            HT/PER
                 (UTC) (F)     (DEG/KT/KT) (MB)    (FT/S)
NORTHPORT PIER   1305   10     280/  8/ 19 1014.2R
SISTER BAY       1213    8     300/ 13/ 15   N/A
KEWAUNEE LAKESHO 1200   13     310/  8/ 16 1013.4R
SHEBOYGAN LAKESH 1300   13     290/ 13/ 16 1017.6R
PORT WASHINGTON  1200   15     300/  7/ 18 1016.9
MILWAUKEE LAKESH 1200   16     290/ 15/ 22   N/A
KENOSHA   LAKESH 1300   17     320/ 11/ 15 1016.3S
$$

TC  - TEMPERATURE IN CELSIUS
VSB - VISIBILITY IN STATUTE MILES
WCI - WIND CHILL INDEX
HX  - HEAT INDEX




USA.gov is the U.S. government's official web portal to all federal, state and local government web resources and services.